[[{"header":{"parameterUnit":"m.s-1","parameterCategory":1,"la1":30.2991,"la2":30.254,"lo1":-89.0895,"lo2":-89.0444,"dy":0.0017,"dx":0.0017,"nx":28,"ny":28,"refTime":"2025-06-05T03:00:00:Z","depth":0,"parameterNumber":2,"parameterNumberName":"U-component_of_WINDS"},"data":[0,0,0,0,0,0,0,0,0,0,0,0,0,0,0,0,0,0,0,0,0,0,0,0,0,0,0,0,0,0,0,0,0,0,0,0,0,0,0,0,0,0,0,0,0,0,0,0,0,0,0,0,0,0,0,0,0,0,-3.1568,-3.1568,0,-3.1568,-3.1568,-3.1568,-3.1496,-3.1494,-3.1492,-3.149,-3.149,-3.1492,-3.1494,0,0,0,0,0,0,0,0,0,0,0,0,0,-3.1507,-3.1509,-3.1568,-3.1568,-3.1568,-3.1568,-3.1568,-3.1568,-3.1496,-3.1494,-3.1491,-3.1489,-3.149,-3.1492,-3.1494,0,0,0,0,0,0,0,0,0,0,0,0,0,-3.1523,-3.1509,-3.1568,-3.1532,-3.1529,-3.1568,-3.1568,-3.1568,-3.1497,-3.1494,-3.1491,-3.1488,-3.1489,-3.1492,-3.1494,-3.1567,0,0,-3.1502,-3.1503,0,0,0,0,0,0,0,0,-3.1522,-3.1525,-3.1537,-3.1535,-3.1531,-3.1529,-3.1546,-3.1568,-3.1497,-3.1509,-3.149,-3.1487,-3.1505,-3.1507,-3.1513,-3.1567,-3.1567,-3.1503,-3.1504,-3.1505,-3.1506,0,0,0,0,0,0,0,-3.1521,-3.1525,-3.1568,-3.1538,-3.1534,-3.1516,-3.1516,-3.155,-3.1523,-3.1508,-3.1502,-3.1503,-3.1503,-3.151,-3.1512,-3.1567,-3.1503,-3.1505,-3.1506,-3.1508,-3.1682,-3.1685,0,0,0,0,0,0,-3.1525,-3.1525,-3.1568,-3.1568,-3.152,-3.152,-3.1519,-3.1532,-3.1522,-3.1518,-3.1506,-3.15,-3.1507,-3.1509,-3.1512,-3.1596,-3.1505,-3.1508,-3.1509,-3.1679,-3.1682,-3.1686,0,0,0,0,0,0,-3.1524,-3.153,-3.1568,-3.1545,-3.1548,-3.1524,-3.154,-3.1534,-3.1541,-3.1521,-3.1516,-3.1518,-3.1505,-3.1508,-3.1554,-3.1595,-3.1509,-3.1511,-3.1675,-3.168,-3.1684,-3.1766,0,0,0,0,0,0,-3.1523,-3.153,-3.1557,-3.1546,-3.155,-3.161,-3.1542,-3.1536,-3.1546,-3.1538,-3.1531,-3.1527,-3.1503,-3.155,-3.1557,-3.1597,-3.1513,-3.1671,-3.1677,-3.1683,-3.1759,-3.1772,-3.1784,0,0,0,0,0,-3.1521,-3.158,-3.1559,-3.1564,-3.1583,-3.1612,-3.1614,-3.1585,-3.1549,-3.1576,-3.1564,-3.1527,-3.159,-3.1556,-3.1562,-3.1604,-3.1668,-3.1675,-3.1682,-3.1753,-3.177,-3.1783,0,0,0,0,0,0,-3.1596,-3.1578,-3.1554,-3.1611,-3.1614,-3.16,-3.1633,-3.1603,-3.1616,-3.1609,-3.1572,-3.1571,-3.1623,-3.1618,-3.158,-3.1674,-3.1623,-3.1631,-3.1675,-3.169,-3.1702,-3.1702,-3.1516,0,0,0,0,0,-3.162,-3.1644,-3.1627,-3.1679,-3.1682,-3.1658,-3.1669,-3.1647,-3.1648,-3.1649,-3.1639,-3.1642,-3.1662,-3.1676,-3.1694,-3.1759,-3.1756,-3.1791,-3.1803,-3.1814,-3.1821,-3.1854,-3.1869,-3.1708,-3.1708,-3.1708,0,0,-3.1668,-3.1661,-3.1679,-3.1695,-3.1694,-3.172,-3.1659,-3.169,-3.1709,-3.1653,-3.1695,-3.1689,-3.169,-3.1746,-3.177,-3.1743,-3.1865,-3.1822,-3.1831,-3.1832,-3.1863,-3.1878,-3.1892,-3.1713,-3.1712,-3.1711,0,0,-3.1769,-3.1767,-3.181,-3.1811,-3.181,-3.1794,-3.1805,-3.1796,-3.1789,-3.1831,-3.179,-3.1813,-3.1849,-3.1851,-3.1856,-3.196,-3.1927,-3.1967,-3.2031,-3.2064,-3.2077,-3.2088,-3.2124,-3.2138,-3.1975,-3.1975,-3.1975,0,-3.1829,-3.1867,-3.1836,-3.1869,-3.1877,-3.1829,-3.1872,-3.1874,-3.188,-3.1887,-3.1858,-3.1902,-3.1899,-3.1954,-3.198,-3.1986,-3.1997,-3.1967,-3.2078,-3.2088,-3.2098,-3.2132,-3.2146,-3.198,-3.1979,-3.1979,-3.1978,0,-3.194,-3.1968,-3.2003,-3.2009,-3.2022,-3.206,-3.2035,-3.2051,-3.2028,-3.2015,-3.2059,-3.2054,-3.207,-3.2082,-3.206,-3.2134,-3.2118,-3.2084,-3.2031,-3.2119,-3.215,-3.2163,-3.1987,-3.1985,-3.1984,-3.1982,0,0,-3.2087,-3.2077,-3.209,-3.2092,-3.2089,-3.211,-3.2147,-3.2162,-3.2176,-3.2183,-3.2212,-3.2244,-3.2213,-3.222,-3.2198,-3.2228,-3.2309,-3.219,-3.2189,-3.2211,-3.239,-3.2414,-3.243,-3.2288,-3.229,-3.2292,-3.239,0,-3.2184,-3.2245,-3.2219,-3.2283,-3.2307,-3.2262,-3.2294,-3.2296,-3.2286,-3.2305,-3.2294,-3.2316,-3.2274,-3.2278,-3.2305,-3.2293,-3.2344,-3.2286,-3.2315,-3.2316,-3.2314,-3.2446,-3.2472,-3.2564,-3.2402,-3.2404,-3.2405,0,-3.2305,-3.2316,-3.2383,-3.2375,-3.2385,-3.2414,-3.2426,-3.2445,-3.2447,-3.2437,-3.2445,-3.2417,-3.2453,-3.2402,-3.2451,-3.2412,-3.2422,-3.2419,-3.2421,-3.2421,-3.2365,-3.2449,-3.2593,-3.2606,-3.2425,-3.2423,-3.2422,0,-3.2404,-3.2436,-3.248,-3.2483,-3.2476,-3.2498,-3.2496,-3.2494,-3.2506,-3.2517,-3.2523,-3.2539,-3.2547,-3.2559,-3.2536,-3.2502,-3.2588,-3.2535,-3.258,-3.2581,-3.2599,-3.2598,-3.2745,-3.2609,-3.2609,-3.2608,-3.2608,0,-3.2515,-3.2557,-3.2524,-3.2551,-3.2597,-3.2567,-3.2613,-3.2606,-3.2606,-3.2631,-3.2593,-3.2618,-3.2586,-3.2607,-3.259,-3.2632,-3.2637,-3.263,-3.2624,-3.2632,-3.2633,-3.2637,-3.2629,-3.2612,-3.2611,-3.261,-3.261,0,-3.2632,-3.2612,-3.2657,-3.2646,-3.2645,-3.2679,-3.2671,-3.2695,-3.2682,-3.2714,-3.272,-3.27,-3.2724,-3.2702,-3.2725,-3.2713,-3.2769,-3.2755,-3.2769,-3.2764,-3.281,-3.2805,-3.2964,-3.2982,-3.2836,-3.2837,-3.2838,0,-3.2703,-3.2734,-3.2728,-3.2742,-3.2742,-3.2765,-3.2776,-3.2748,-3.2761,-3.2766,-3.279,-3.281,-3.2824,-3.2863,-3.2851,-3.2868,-3.2854,-3.2908,-3.2856,-3.2863,-3.2853,-3.2851,-3.2853,-3.2918,-3.292,-3.2921,-3.2922,0,-3.2831,-3.2819,-3.2836,-3.2851,-3.2865,-3.2875,-3.2882,-3.2895,-3.2867,-3.2883,-3.2907,-3.2918,-3.2941,-3.2961,-3.2974,-3.2973,-3.2943,-3.2939,-3.295,-3.2958,-3.2964,-3.296,-3.2796,-3.2935,-3.2934,-3.2933,-3.2932,-3.2932,-3.2926,-3.2952,-3.2951,-3.2972,-3.2974,-3.2981,-3.3004,-3.2994,-3.3013,-3.3029,-3.3012,-3.304,-3.3041,-3.3056,-3.3058,-3.308,-3.3057,-3.3073,-3.3077,-3.3081,-3.3088,-3.2962,-3.3083,-3.3082,-3.3082,-3.3081,-3.3081,0,-3.3051,-3.3048,-3.3068,-3.3078,-3.3095,-3.3066,-3.3072,-3.3088,-3.3113,-3.3117,-3.3132,-3.3159,-3.3178,-3.3168,-3.3185,-3.3205,-3.3192,-3.321,-3.3208,-3.3208,-3.3108,-3.3096,-3.3221,-3.3221,-3.3221,-3.3221,-3.3221,-3.3221,-3.3117,-3.3159,-3.3148,-3.319,-3.3188,-3.3215,-3.3221,-3.3228,-3.323,-3.3262,-3.3278,-3.3271,-3.327,-3.3286,-3.3304,-3.33,-3.3308,-3.3331,-3.3323,-3.3229,-3.3215,-3.3202,-3.319,-3.3333,-3.3333,-3.3421,-3.3422,-3.3422]},{"header":{"parameterUnit":"m.s-1","parameterCategory":1,"la1":30.2991,"la2":30.254,"lo1":-89.0895,"lo2":-89.0444,"dy":0.0017,"dx":0.0017,"nx":28,"ny":28,"refTime":"2025-06-05T03:00:00:Z","depth":0,"parameterNumber":3,"parameterNumberName":"V-component_of_WINDS"},"data":[0,0,0,0,0,0,0,0,0,0,0,0,0,0,0,0,0,0,0,0,0,0,0,0,0,0,0,0,0,0,0,0,0,0,0,0,0,0,0,0,0,0,0,0,0,0,0,0,0,0,0,0,0,0,0,0,0,0,3.2139,3.214,0,3.2186,3.2187,3.2187,3.2268,3.227,3.2271,3.2273,3.2315,3.2314,3.2314,0,0,0,0,0,0,0,0,0,0,0,0,0,3.2115,3.2115,3.2139,3.214,3.2141,3.2186,3.2187,3.2187,3.2268,3.227,3.2272,3.2274,3.2315,3.2314,3.2314,0,0,0,0,0,0,0,0,0,0,0,0,0,3.214,3.2115,3.2139,3.2186,3.2191,3.2186,3.2187,3.2188,3.2268,3.227,3.2272,3.2274,3.2315,3.2314,3.2314,3.2265,0,0,3.2312,3.2312,0,0,0,0,0,0,0,0,3.2139,3.2141,3.2179,3.2183,3.2188,3.2224,3.2194,3.2213,3.2267,3.2238,3.2273,3.2276,3.2282,3.2285,3.2288,3.2267,3.2268,3.2312,3.2312,3.2312,3.2312,0,0,0,0,0,0,0,3.2137,3.2139,3.2158,3.2179,3.2185,3.2204,3.221,3.2198,3.2246,3.2241,3.2247,3.2252,3.2285,3.2288,3.229,3.2269,3.2312,3.2312,3.2312,3.2311,3.221,3.2208,0,0,0,0,0,0,3.2129,3.2137,3.2156,3.2159,3.2169,3.2202,3.2209,3.221,3.2247,3.2255,3.225,3.2256,3.2288,3.229,3.2291,3.2237,3.2312,3.2311,3.2311,3.2213,3.221,3.2207,0,0,0,0,0,0,3.2128,3.213,3.2154,3.215,3.2155,3.22,3.2201,3.221,3.2213,3.2254,3.2262,3.2244,3.229,3.2292,3.2271,3.2239,3.2311,3.2311,3.2215,3.2212,3.2208,3.2126,0,0,0,0,0,0,3.2127,3.2129,3.2112,3.2149,3.2155,3.2134,3.2199,3.2209,3.2213,3.2221,3.2251,3.2258,3.2292,3.2272,3.2271,3.224,3.231,3.2219,3.2214,3.221,3.2131,3.212,3.211,0,0,0,0,0,3.2126,3.2085,3.211,3.2112,3.2134,3.2133,3.2135,3.2177,3.221,3.2192,3.2219,3.2257,3.2243,3.2269,3.2269,3.2237,3.2221,3.2215,3.221,3.2136,3.2122,3.211,0,0,0,0,0,0,3.204,3.209,3.2119,3.2089,3.2106,3.2146,3.2125,3.216,3.2167,3.2173,3.2223,3.2229,3.2202,3.2218,3.2245,3.2191,3.2238,3.2232,3.2182,3.2169,3.2158,3.2154,3.231,0,0,0,0,0,3.2018,3.2014,3.2058,3.2027,3.2035,3.2078,3.2079,3.211,3.2129,3.2136,3.216,3.2175,3.2175,3.2173,3.2174,3.2135,3.2142,3.2113,3.2102,3.2093,3.2087,3.2067,3.2055,3.2189,3.219,3.219,0,0,3.1971,3.1998,3.1992,3.2011,3.2027,3.2021,3.2083,3.2074,3.2069,3.2133,3.2116,3.2135,3.2155,3.2125,3.2113,3.2137,3.2052,3.2086,3.2078,3.2077,3.206,3.2048,3.2036,3.2186,3.2186,3.2187,0,0,3.1883,3.1904,3.1881,3.1897,3.1923,3.1953,3.1947,3.1982,3.1998,3.1982,3.203,3.2025,3.2022,3.2035,3.2041,3.196,3.1996,3.1959,3.1901,3.1882,3.1871,3.1862,3.1833,3.1822,3.1953,3.1953,3.1953,0,3.1821,3.1815,3.1864,3.1852,3.1858,3.192,3.1896,3.1909,3.1932,3.1935,3.1963,3.1962,3.198,3.1953,3.1934,3.1937,3.1931,3.1955,3.1869,3.186,3.1853,3.1825,3.1814,3.1949,3.1949,3.195,3.195,0,3.1738,3.1733,3.1711,3.1736,3.174,3.1722,3.1767,3.1765,3.1796,3.1823,3.1805,3.1829,3.1837,3.1834,3.1863,3.1812,3.1826,3.1861,3.1908,3.1834,3.1809,3.1799,3.1942,3.1944,3.1945,3.1946,0,0,3.1594,3.1648,3.1639,3.1651,3.1685,3.1682,3.1667,3.1677,3.1674,3.1689,3.1677,3.1674,3.1707,3.1714,3.1746,3.1729,3.1663,3.1766,3.1767,3.1745,3.1608,3.158,3.1568,3.1688,3.1686,3.1684,3.1606,0,3.1513,3.1492,3.1536,3.1504,3.15,3.1559,3.1546,3.1564,3.1589,3.1588,3.1615,3.1613,3.1657,3.1661,3.1647,3.1674,3.1636,3.168,3.1675,3.1674,3.1667,3.1555,3.1526,3.145,3.1596,3.1595,3.1594,0,3.1414,3.1427,3.1394,3.1432,3.1432,3.1419,3.1433,3.1432,3.1454,3.1473,3.1482,3.152,3.1507,3.1554,3.1536,3.1565,3.1566,3.1579,3.1577,3.1577,3.1628,3.155,3.1427,3.1415,3.1579,3.158,3.1581,0,3.1312,3.1321,3.1303,3.1312,3.1355,3.1345,3.1362,3.1387,3.139,3.1402,3.1404,3.1413,3.1417,3.1423,3.1462,3.1493,3.1439,3.1489,3.1453,3.1452,3.1437,3.1437,3.1311,3.1439,3.144,3.144,3.144,0,3.1215,3.1193,3.1258,3.1247,3.1224,3.1275,3.125,3.1273,3.1295,3.1288,3.134,3.1332,3.1385,3.1383,3.1413,3.1393,3.1395,3.1409,3.1417,3.1404,3.1402,3.1404,3.1409,3.1437,3.1438,3.1438,3.1439,0,3.1096,3.1139,3.1124,3.1167,3.1177,3.1158,3.1195,3.1185,3.1215,3.1206,3.1206,3.1251,3.1252,3.1292,3.13,3.132,3.1287,3.1305,3.128,3.1285,3.1247,3.1249,3.1116,3.1101,3.124,3.1238,3.1237,0,3.1031,3.1016,3.1058,3.1059,3.1074,3.1074,3.1079,3.1129,3.1131,3.1157,3.1144,3.115,3.1156,3.1154,3.1186,3.1192,3.121,3.1163,3.1211,3.1198,3.1208,3.1208,3.1207,3.1152,3.115,3.1149,3.1148,0,3.091,3.0933,3.0939,3.0953,3.0958,3.0971,3.0986,3.0983,3.1038,3.1038,3.1041,3.1046,3.1056,3.106,3.1073,3.1089,3.1126,3.1133,3.1125,3.111,3.1096,3.1103,3.1251,3.1135,3.1137,3.1138,3.1138,3.1139,3.0816,3.0806,3.0835,3.084,3.0858,3.0872,3.0866,3.0895,3.0899,3.0912,3.0941,3.0939,3.0962,3.0984,3.0997,3.0995,3.1018,3.1006,3.1003,3.0999,3.0992,3.1098,3.0997,3.0998,3.0998,3.0999,3.0999,0,3.0698,3.072,3.0725,3.0747,3.075,3.079,3.0809,3.0809,3.0808,3.0827,3.0834,3.0837,3.0841,3.0875,3.0883,3.0875,3.0892,3.0875,3.0875,3.0879,3.0971,3.0977,3.0861,3.0861,3.0861,3.0861,3.0861,3.0861,3.0637,3.0621,3.0648,3.0641,3.0664,3.0664,3.0672,3.0685,3.0701,3.0703,3.0708,3.0731,3.0756,3.0767,3.0772,3.0782,3.0782,3.0759,3.0774,3.0859,3.0872,3.0885,3.0891,3.0758,3.0758,3.0682,3.0681,3.0681]}]]